Location: Bannatyne
(13.0833°N, 59.5333°W)
Time: 22:44:11
(UTC+00:00)

Hubble Space Telescope - Visible Passes

Search period start: 27 January 2021 00:00
Search period end: 06 February 2021 00:00
Orbit: 536 x 539 km, 28.5° (Epoch: 27 January)

Date Brightness Start Highest point End Pass type
(mag) Time Alt. Az. Time Alt. Az. Time Alt. Az.
27 Jan 1.2 23:16:37 10° NW 23:20:27 44° NNE 23:20:27 44° NNE visible
28 Jan 0.8 23:05:42 10° NW 23:09:46 59° NNE 23:10:54 42° E visible
29 Jan 0.6 22:54:49 10° WNW 22:58:58 82° NNE 23:01:30 22° ESE visible
30 Jan 0.9 22:44:00 10° WNW 22:48:07 73° SSW 22:52:12 10° ESE visible
31 Jan 4.0 00:27:19 10° WSW 00:27:36 11° SW 00:27:36 11° SW visible
31 Jan 1.6 22:33:16 10° WNW 22:37:16 51° SSW 22:41:18 10° SE visible
01 Feb 2.3 22:22:37 10° W 22:26:25 36° SSW 22:30:14 10° SE visible
04 Feb 3.5 10:00:21 10° S 10:03:04 17° SSE 10:05:47 10° ESE visible
05 Feb 3.1 09:48:55 10° SSW 09:52:13 23° SSE 09:55:31 10° E visible
